This is the latest recevied weather packets stored in our database for station/object IA5KRO-13. If no packets are shown the sender has not sent any weather packets the latest 1 day(s).
| Time | Temp. | Humidity | Pressure | Rain* | Wind** | Luminosity | Snow |
|---|---|---|---|---|---|---|---|
| 1777954812 | 17.22° C | 98% | 1019.6 hPa | 0 mm | 2.68 m/s, 177° | - | - |
| 1777954512 | 17.22° C | 98% | 1019.6 hPa | 0.25 mm | 1.34 m/s, 257° | - | - |
| 1777954212 | 17.22° C | 99% | 1019.6 hPa | 0.25 mm | 1.79 m/s, 307° | - | - |
| 1777953909 | 17.22° C | 98% | 1019.6 hPa | 0 mm | 1.79 m/s, 169° | - | - |
| 1777953632 | 17.22° C | 97% | 1019.6 hPa | 0 mm | 3.13 m/s, 305° | - | - |
| 1777953309 | 17.22° C | 99% | 1019.3 hPa | 0.25 mm | 2.24 m/s, 289° | - | - |
| 1777953011 | 17.22° C | 99% | 1019.3 hPa | 0.25 mm | 2.24 m/s, 263° | - | - |
| 1777952712 | 17.22° C | 99% | 1019.6 hPa | 0 mm | 1.79 m/s, 297° | - | - |
| 1777952413 | 17.22° C | 99% | 1019.6 hPa | 0.25 mm | 1.79 m/s, 119° | - | - |
| 1777952108 | 17.22° C | 99% | 1020 hPa | 0.25 mm | 3.13 m/s, 139° | - | - |
| 1777951822 | 16.11° C | 99% | 1020 hPa | 0 mm | 1.34 m/s, 111° | - | - |
| 1777951509 | 16.11° C | 99% | 1020 hPa | 0.25 mm | 2.68 m/s, 278° | - | - |
| 1777951212 | 16.11° C | 99% | 1020 hPa | 0.25 mm | 1.79 m/s, 211° | - | - |
| 1777950912 | 16.11° C | 99% | 1020 hPa | 0.25 mm | 2.24 m/s, 198° | - | - |
| 1777950613 | 16.11° C | 99% | 1020 hPa | 0.25 mm | 1.79 m/s, 281° | - | - |
| 1777950309 | 16.11° C | 99% | 1020 hPa | 0.25 mm | 2.68 m/s, 180° | - | - |
| 1777950031 | 16.11° C | 99% | 1020 hPa | 0 mm | 0.45 m/s, 246° | - | - |
| 1777949709 | 16.11° C | 99% | 1020 hPa | 0.25 mm | 0.89 m/s, 145° | - | - |
| 1777949412 | 16.11° C | 99% | 1020 hPa | 0.25 mm | 0.45 m/s, 236° | - | - |
| 1777949112 | 16.11° C | 99% | 1020 hPa | 0 mm | 0.89 m/s, 102° | - | - |
| 1777948812 | 16.11° C | 99% | 1020 hPa | 0 mm | 0.89 m/s, 229° | - | - |
| 1777948508 | 16.11° C | 99% | 1020 hPa | 0 mm | 2.24 m/s, 331° | - | - |
| 1777948221 | 16.11° C | 99% | 1020 hPa | 0 mm | 1.34 m/s, 134° | - | - |
| 1777947909 | 16.11° C | 99% | 1020 hPa | 0.25 mm | 0.89 m/s, 233° | - | - |
* Rain latest hour (hover to see other rain measurements)
** Current wind speed in m/s (hover to see current wind gust speed)